Plovdiv, Bulgaria

3:17 PM EET on December 08, 2019 (GMT +0200)
Plovdiv

Weather History for LBPD - October, 2019

Change the Weather History Date:

Friday, October 11, 2019

  Actual Average (WUND) Record (WUND)
Temperature  
Mean Temperature 68 °F -  
Max Temperature 78 °F - - (-1)
Min Temperature 59 °F - - (-1)
Cooling Degree Days 4    
Growing Degree Days 18 (Base 50)    
Moisture  
Dew Point 49 °F    
Average Humidity 55    
Maximum Humidity 82    
Minimum Humidity 26    
Precipitation  
Precipitation 0.00 in - - ()
Sea Level Pressure  
Sea Level Pressure 30.15 in    
Wind  
Wind Speed 8 mph ()    
Max Wind Speed 22 mph    
Max Gust Speed 30 mph    
Visibility 6.2 miles    
Events      
Averages and records for this station are not official NWS values.
T = Trace of Precipitation, MM = Missing Value Source: Averaged Metar Reports

Daily Weather History Graph

Daily Weather History Graph

Search for Another Location

Airport or City:

Astronomy

Oct. 11, 2019 Rise Set
Actual Time 7:28 AM EEST 6:46 PM EEST
Civil Twilight 7:00 AM EEST 7:14 PM EEST
Nautical Twilight 6:27 AM EEST 7:46 PM EEST
Astronomical Twilight 5:55 AM EEST 8:19 PM EEST
Moon 6:10 PM EEST (10/11) 4:46 AM EEST (10/11)
Length of Visible Light 12h 14m
Length of Day
11h 18m
Waxing Gibbous, 94% of the Moon is Illuminated
Oct 11
Waxing Gibbous
Oct 14
Full
Oct 21
Last Quarter
Oct 28
New
Nov 4
First Quarter

Hourly Weather History & Observations

Time (EEST) Temp. Dew Point Humidity Pressure Visibility Wind Dir Wind Speed Gust Speed Precip Events Conditions
12:00 AM 62.6 °F 53.6 °F 72% 30.01 in 6.2 mi WNW 3.5 mph - N/A   Unknown
12:30 AM 59.0 °F 51.8 °F 77% 30.04 in 6.2 mi West 6.9 mph - N/A   Unknown
1:00 AM 59.0 °F 51.8 °F 77% 30.04 in 6.2 mi West 4.6 mph - N/A   Unknown
1:30 AM 59.0 °F 51.8 °F 77% 30.04 in 6.2 mi NW 5.8 mph - N/A   Unknown
2:00 AM 59.0 °F 51.8 °F 77% 30.04 in 6.2 mi West 5.8 mph - N/A   Unknown
2:30 AM 59.0 °F 51.8 °F 77% 30.04 in 6.2 mi WNW 5.8 mph - N/A   Unknown
3:00 AM 59.0 °F 51.8 °F 77% 30.04 in 6.2 mi SW 3.5 mph - N/A   Unknown
3:30 AM 59.0 °F 51.8 °F 77% 30.04 in 6.2 mi West 3.5 mph - N/A   Partly Cloudy
4:00 AM 60.8 °F 51.8 °F 72% 30.06 in 6.2 mi WNW 5.8 mph - N/A   Mostly Cloudy
4:30 AM 59.0 °F 51.8 °F 77% 30.06 in 6.2 mi Calm Calm - N/A   Mostly Cloudy
5:00 AM 59.0 °F 53.6 °F 82% 30.09 in 6.2 mi SSW 4.6 mph - N/A   Overcast
5:30 AM 60.8 °F 53.6 °F 77% 30.09 in 6.2 mi SW 4.6 mph - N/A   Overcast
6:00 AM 59.0 °F 53.6 °F 82% 30.09 in 6.2 mi Calm Calm - N/A   Partly Cloudy
6:30 AM 60.8 °F 53.6 °F 77% 30.12 in 6.2 mi ESE 4.6 mph - N/A   Overcast
7:00 AM 60.8 °F 53.6 °F 77% 30.12 in 6.2 mi North 5.8 mph - N/A   Overcast
7:30 AM 62.6 °F 53.6 °F 72% 30.12 in 6.2 mi WNW 9.2 mph - N/A   Mostly Cloudy
8:00 AM 66.2 °F 53.6 °F 64% 30.12 in 6.2 mi WNW 17.3 mph - N/A   Mostly Cloudy
8:30 AM 66.2 °F 53.6 °F 64% 30.12 in 6.2 mi West 19.6 mph - N/A   Unknown
9:00 AM 68.0 °F 53.6 °F 60% 30.15 in 6.2 mi WNW 19.6 mph - N/A   Scattered Clouds
9:30 AM 69.8 °F 51.8 °F 53% 30.15 in 6.2 mi WNW 15.0 mph - N/A   Partly Cloudy
10:00 AM 69.8 °F 50.0 °F 49% 30.18 in 6.2 mi WNW 21.9 mph - N/A   Scattered Clouds
10:30 AM 71.6 °F 50.0 °F 46% 30.18 in 6.2 mi WNW 19.6 mph - N/A   Partly Cloudy
11:00 AM 73.4 °F 50.0 °F 44% 30.18 in 6.2 mi WNW 18.4 mph - N/A   Unknown
11:30 AM 73.4 °F 50.0 °F 44% 30.18 in 6.2 mi WNW 19.6 mph - N/A   Unknown
12:00 PM 75.2 °F 48.2 °F 38% 30.18 in 6.2 mi WNW 18.4 mph - N/A   Unknown
12:30 PM 75.2 °F 46.4 °F 36% 30.18 in 6.2 mi West 18.4 mph 29.9 mph N/A   Unknown
1:00 PM 77.0 °F 46.4 °F 34% 30.18 in 6.2 mi WNW 18.4 mph - N/A   Unknown
1:30 PM 77.0 °F 44.6 °F 32% 30.18 in 6.2 mi WNW 19.6 mph - N/A   Unknown
2:00 PM 78.8 °F 42.8 °F 28% 30.18 in 6.2 mi WNW 17.3 mph - N/A   Unknown
2:30 PM 78.8 °F 42.8 °F 28% 30.18 in 6.2 mi WNW 13.8 mph - N/A   Partly Cloudy
3:00 PM 78.8 °F 42.8 °F 28% 30.18 in 6.2 mi NW 10.4 mph - N/A   Partly Cloudy
3:30 PM 78.8 °F 41.0 °F 26% 30.15 in 6.2 mi West 5.8 mph - N/A   Overcast
4:00 PM 77.0 °F 41.0 °F 28% 30.15 in 6.2 mi WNW 11.5 mph - N/A   Unknown
4:30 PM 77.0 °F 39.2 °F 26% 30.15 in 6.2 mi West 8.1 mph - N/A   Mostly Cloudy
5:00 PM 77.0 °F 41.0 °F 28% 30.15 in 6.2 mi WNW 5.8 mph - N/A   Overcast
5:30 PM 77.0 °F 41.0 °F 28% 30.18 in 6.2 mi West 3.5 mph - N/A   Mostly Cloudy
6:00 PM 75.2 °F 53.6 °F 47% 30.18 in 6.2 mi ENE 6.9 mph - N/A   Overcast
6:30 PM 73.4 °F 53.6 °F 50% 30.18 in 6.2 mi ESE 10.4 mph - N/A   Scattered Clouds
7:00 PM 69.8 °F 53.6 °F 56% 30.21 in 6.2 mi ESE 10.4 mph - N/A   Unknown
7:30 PM 68.0 °F 53.6 °F 60% 30.21 in 6.2 mi ESE 9.2 mph - N/A   Unknown
8:00 PM 66.2 °F 51.8 °F 60% 30.21 in 6.2 mi East 9.2 mph - N/A   Unknown
8:30 PM 69.8 °F 46.4 °F 43% 30.21 in 6.2 mi ESE 16.1 mph - N/A   Mostly Cloudy
9:00 PM 68.0 °F 44.6 °F 43% 30.24 in 6.2 mi ESE 16.1 mph - N/A   Partly Cloudy
9:30 PM 66.2 °F 46.4 °F 49% 30.24 in 6.2 mi ESE 12.7 mph - N/A   Partly Cloudy
10:00 PM 66.2 °F 44.6 °F 46% 30.24 in 6.2 mi East 11.5 mph - N/A   Mostly Cloudy
10:30 PM 64.4 °F 46.4 °F 52% 30.24 in 6.2 mi SE 9.2 mph - N/A   Overcast
11:00 PM 62.6 °F 48.2 °F 59% 30.24 in 6.2 mi ESE 6.9 mph - N/A   Overcast
11:30 PM 64.4 °F 48.2 °F 56% 30.27 in 6.2 mi ESE 9.2 mph - N/A   Mostly Cloudy